{"data":{"norad_id":64828,"intl_designator":"2025-151N","name":"KUIPER-00082","alt_names":[],"object_type":"PAYLOAD","status":"ACTIVE","operator":null,"country":"US","launch_date":"2025-07-16","launch_site_code":"AFETR","launch_vehicle":null,"mission":null,"orbit_class":"UNKNOWN","rcs_meters":null,"size_class":null,"mass_kg":null,"dimensions":null,"purposes":[],"wikipedia_slug":null,"has_3d_model":false,"image_url":null,"decayed_at":null,"tle_current":{"epoch":"2026-09-21T21:07:29.375040Z","epoch_age_seconds":55238,"freshness":"FRESH","line1":"1 64828U 25151N   26264.88020110  .00000728  00000+0  12450-3 0  9993","line2":"2 64828  51.9026 140.5716 0001006  96.6155 263.4922 14.79928488 64532","mean_motion":14.79928488,"eccentricity":0.0001006,"inclination_deg":51.9026,"raan_deg":140.5716,"arg_perigee_deg":96.6155,"mean_anomaly_deg":263.4922,"bstar":0.0001245,"rev_number":6453,"period_min":97.301998824689,"perigee_km":628.84489917773,"apogee_km":630.25484577648,"semimajor_km":7007.6868724771,"source":"CELESTRAK","updated_at":"2026-09-22T09:00:29.976472Z"}}}